FALCON 9 DEB, 48609

Orbit data source: Space-Track

FALCON 9 DEB, 48609 is space debris in LEO originally from a launch on Sat, 15 May 2021 UTC launched from the Air Force Eastern Test Range (AFETR). Debris objects in space refer to the collection of defunct objects orbiting the Earth. Examples of debris include non-operational satellites, rocket bodies, and fragments generated from explosions, collisions, or faulty payload assembly.

Loading next visibility...
Identifier
48609, 2021-041BJ
Orbit
LEO
Country
Flag of USUS
Related business
Manufacturer
SpaceX/Seattle
Mission
Spacecraft
Bus & Motor
Unknown
Mass
~100 kg wet, ~100 kg dry
Launch date (UTC)
2021-05-15 (5 years ago)
Launch vehicle
Unknown
Launch site
Air Force Eastern Test Range (AFETR)
Object type
Payload
Rocket body
Debris
Shape & HBR
Cyl, 3.5 m
Radar Cross Section
0.110 m², Medium (>0.1 m² and < 1m²)

Expand to show TLE details & history
Last TLE update: 22 hours ago

TLE from 22 hours ago
0 FALCON 9 DEB
1 48609U 21041BJ  25349.88436134  .00002644  00000-0  17346-3 0  9995
2 48609  53.0271 199.5274 0008033 281.9433  78.0657 15.11099095251762
Epoch: 2025-12-15T21:13Z
TLE epoch observation values (Epoch: 2025-12-15T21:13:28.819Z)
Latitude
-0.00003°
Longitude
156.38078°
Altitude
532.581 km
Speed
7.598 km/s
True Right ascension
13h 18m 06s
True Declination
0° 00' 00"
Sunlit
Object was in daylight at epoch
Visualization orbit readout
Latitude
Unknown
Longitude
Unknown
Altitude
Unknown
Speed
Unknown
Apparent Right ascension
Unknown
Apparent Declination
Unknown
Sunlit
N/A
Visualization observer readout
Local Sidereal Time
17:43:51
Azimuth
Unknown
Elevation
Unknown
Doppler factor
Unknown
Orbital elements
Apogee altitude
538.674 km
Perigee altitude
527.571 km
Semi-major axis
6,911.26 km
Eccentricity
0.0008
Inclination
53.0271°
RAAN
199.5274°
Arg. of periapsis
281.9433°
True anomaly
78.15578°
Mean anomaly
78.0657°
Eccentric anomaly
78.11074°
Mean motion
3.77753 °/min
Orbital period
95.3 mins
BSTAR
0.00017346
Loading maneuver chart data...
Computing Atmospheric mass density...
Loading historical data...
Loading historical data...
Loading historical data...
Loading historical data...
Loading historical data...
Loading historical data...
Loading historical data...

Documentation

Showing up to 5 results
|